EW2670 Weather Reports


Display with metric or nautical units.
time (UTC)temp
F
wind
direction
speed
MPH
gust
MPH
rain 1hr
in
rain 24hr
in
rain mn
in
humidity
%
barometer
mb
20260504020517 64 225 7.0 9.0 0.00 0.00 0.00 26 1004.9
20260504020018 64 225 6.0 8.0 0.00 0.00 0.00 26 1004.8
20260504015517 64 225 5.0 7.0 0.00 0.00 0.00 26 1004.7
20260504015017 65 225 5.0 7.0 0.00 0.00 0.00 25 1004.7
20260504014517 65 225 5.0 8.0 0.00 0.00 0.00 25 1004.8
20260504014017 66 225 5.0 8.0 0.00 0.00 0.00 25 1004.7
20260504013517 66 225 6.0 10.0 0.00 0.00 0.00 24 1004.7
20260504013017 67 225 6.0 9.0 0.00 0.00 0.00 24 1004.7
20260504012517 67 225 7.0 9.0 0.00 0.00 0.00 24 1004.6
20260504012018 67 225 7.0 10.0 0.00 0.00 0.00 24 1004.6
20260504011517 68 225 7.0 12.0 0.00 0.00 0.00 23 1004.6
20260504011017 68 225 8.0 11.0 0.00 0.00 0.00 23 1004.6
20260504010537 68 225 10.0 14.0 0.00 0.00 0.00 23 1004.8
20260504010017 68 225 11.0 14.0 0.00 0.00 0.00 23 1004.8
20260504005517 68 225 11.0 16.0 0.00 0.00 0.00 23 1004.7
20260504005017 68 225 9.0 14.0 0.00 0.00 0.00 23 1004.7
20260504004517 69 202 9.0 12.0 0.00 0.00 0.00 22 1004.4
20260504004017 69 202 7.0 10.0 0.00 0.00 0.00 23 1004.3
20260504003517 69 202 8.0 11.0 0.00 0.00 0.00 22 1004.3
20260504003017 69 202 9.0 12.0 0.00 0.00 0.00 22 1004.2
20260504002517 69 225 9.0 14.0 0.00 0.00 0.00 22 1004.4
20260504002017 70 225 11.0 15.0 0.00 0.00 0.00 22 1004.6
20260504001517 70 225 9.0 14.0 0.00 0.00 0.00 22 1004.7
20260504001017 70 225 8.0 13.0 0.00 0.00 0.00 22 1004.7
20260504000517 70 202 8.0 11.0 0.00 0.00 0.00 21 1004.7
20260504000017 70 202 7.0 10.0 0.00 0.00 0.00 20 1004.6
20260503235537 70 180 7.0 11.0 0.00 0.00 0.00 20 1004.6
20260503235057 70 180 7.0 12.0 0.00 0.00 0.00 20 1004.8
20260503234517 70 225 7.0 14.0 0.00 0.00 0.00 21 1004.9
20260503234017 69 225 12.0 17.0 0.00 0.00 0.00 22 1005.0
20260503233537 69 225 13.0 19.0 0.00 0.00 0.00 21 1005.0
20260503233017 69 202 11.0 17.0 0.00 0.00 0.00 20 1005.0
20260503232537 69 202 9.0 15.0 0.00 0.00 0.00 19 1004.8
20260503232016 69 247 14.0 29.0 0.00 0.00 0.00 19 1005.0
20260503231517 69 247 11.0 18.0 0.00 0.00 0.00 19 1004.8
20260503231017 69 225 6.0 11.0 0.00 0.00 0.00 20 1004.8
20260503230517 70 0 11.0 33.0 0.00 0.00 0.00 19 1004.8
20260503230017 70 247 10.0 30.0 0.00 0.00 0.00 19 1004.6
20260503225517 70 225 8.0 13.0 0.00 0.00 0.00 19 1004.3
20260503225017 69 225 8.0 12.0 0.00 0.00 0.00 20 1004.3
20260503224517 69 225 13.0 19.0 0.00 0.00 0.00 21 1004.2
20260503224016 69 225 11.0 21.0 0.00 0.00 0.00 21 1004.5
20260503223516 70 247 10.0 17.0 0.00 0.00 0.00 20 1004.6
20260503223017 70 225 13.0 18.0 0.00 0.00 0.00 21 1004.7
20260503222516 71 225 8.0 13.0 0.00 0.00 0.00 20 1004.8
20260503222017 71 225 8.0 14.0 0.00 0.00 0.00 19 1004.7
20260503221516 71 225 9.0 12.0 0.00 0.00 0.00 18 1004.5
20260503221016 71 202 10.0 14.0 0.00 0.00 0.00 18 1004.7
20260503220516 71 202 11.0 16.0 0.00 0.00 0.00 17 1004.7
20260503220036 71 225 14.0 21.0 0.00 0.00 0.00 18 1004.7
20260503215516 71 225 16.0 22.0 0.00 0.00 0.00 19 1004.8
20260503215017 71 225 14.0 20.0 0.00 0.00 0.00 18 1004.8
20260503214516 72 225 15.0 21.0 0.00 0.00 0.00 18 1004.9
20260503214016 72 225 13.0 18.0 0.00 0.00 0.00 18 1005.1
20260503213517 72 225 13.0 21.0 0.00 0.00 0.00 17 1005.1
20260503213017 72 225 8.0 13.0 0.00 0.00 0.00 16 1005.3
20260503212536 73 225 10.0 13.0 0.00 0.00 0.00 16 1005.5
20260503212017 73 225 12.0 17.0 0.00 0.00 0.00 16 1005.5
20260503211517 74 225 12.0 20.0 0.00 0.00 0.00 16 1005.6
20260503211016 73 202 5.0 13.0 0.00 0.00 0.00 14 1005.7
20260503210517 73 180 3.0 8.0 0.00 0.00 0.00 14 1005.7
20260503210018 73 112 3.0 7.0 0.00 0.00 0.00 14 1005.7
20260503205537 72 112 4.0 7.0 0.00 0.00 0.00 14 1005.5
20260503205116 72 157 2.0 4.0 0.00 0.00 0.00 13 1005.8
20260503204516 72 67 2.0 4.0 0.00 0.00 0.00 13 1005.9
20260503204016 73 337 2.0 7.0 0.00 0.00 0.00 13 1006.0
20260503203516 73 22 2.0 3.0 0.00 0.00 0.00 14 1006.0
20260503203016 74 315 4.0 9.0 0.00 0.00 0.00 13 1006.2
20260503202516 74 292 2.0 7.0 0.00 0.00 0.00 14 1006.1
20260503202016 74 247 3.0 7.0 0.00 0.00 0.00 13 1006.1
20260503201516 74 247 4.0 10.0 0.00 0.00 0.00 14 1006.3
20260503201016 74 225 6.0 10.0 0.00 0.00 0.00 13 1006.3
20260503200536 76 0 4.0 9.0 0.00 0.00 0.00 13 1006.5
20260503200017 75 270 4.0 9.0 0.00 0.00 0.00 13 1006.7
20260503195517 75 202 3.0 8.0 0.00 0.00 0.00 14 1006.7
20260503195016 73 90 3.0 6.0 0.00 0.00 0.00 14 1006.9
20260503194517 74 22 3.0 6.0 0.00 0.00 0.00 13 1007.1
20260503194017 75 270 5.0 8.0 0.00 0.00 0.00 14 1007.4
20260503193516 75 225 9.0 14.0 0.00 0.00 0.00 14 1007.3
20260503193016 75 202 13.0 19.0 0.00 0.00 0.00 14 1007.2
20260503192516 74 202 5.0 12.0 0.00 0.00 0.00 15 1007.4
20260503192016 74 180 10.0 19.0 0.00 0.00 0.00 14 1007.5
20260503191517 74 202 11.0 17.0 0.00 0.00 0.00 14 1007.6
20260503191016 74 225 8.0 16.0 0.00 0.00 0.00 15 1007.6
20260503190517 73 202 7.0 12.0 0.00 0.00 0.00 15 1007.7
20260503190016 73 225 7.0 12.0 0.00 0.00 0.00 14 1007.9
20260503185517 73 225 8.0 14.0 0.00 0.00 0.00 16 1007.9
20260503185017 74 180 9.0 14.0 0.00 0.00 0.00 16 1008.0
20260503184516 73 225 8.0 12.0 0.00 0.00 0.00 16 1008.2
20260503184036 73 202 8.0 13.0 0.00 0.00 0.00 16 1008.3
20260503183517 72 180 6.0 11.0 0.00 0.00 0.00 16 1008.5
20260503183016 72 202 9.0 13.0 0.00 0.00 0.00 16 1008.6
20260503182516 72 225 7.0 10.0 0.00 0.00 0.00 16 1008.7
20260503182016 71 180 8.0 16.0 0.00 0.00 0.00 15 1008.6
20260503181516 72 202 11.0 17.0 0.00 0.00 0.00 15 1008.7
20260503181016 73 202 9.0 15.0 0.00 0.00 0.00 16 1008.8
20260503180517 72 202 9.0 13.0 0.00 0.00 0.00 16 1008.9
20260503180036 71 202 9.0 13.0 0.00 0.00 0.00 17 1008.9
20260503175516 71 202 9.0 14.0 0.00 0.00 0.00 17 1009.0
20260503175016 71 225 11.0 17.0 0.00 0.00 0.00 16 1009.1
20260503174516 71 225 13.0 18.0 0.00 0.00 0.00 16 1009.1
20260503174016 71 225 13.0 19.0 0.00 0.00 0.00 16 1009.2
20260503173516 71 225 15.0 20.0 0.00 0.00 0.00 16 1009.2
20260503173016 72 225 14.0 19.0 0.00 0.00 0.00 15 1009.2
20260503172516 71 225 16.0 24.0 0.00 0.00 0.00 16 1009.2
20260503172016 71 225 16.0 25.0 0.00 0.00 0.00 16 1009.1
20260503171516 71 225 16.0 21.0 0.00 0.00 0.00 16 1009.1
20260503171016 72 225 13.0 18.0 0.00 0.00 0.00 16 1009.2
20260503170516 71 202 14.0 20.0 0.00 0.00 0.00 16 1009.3
20260503150516 70 247 12.0 19.0 0.00 0.00 0.00 17 1010.0
20260503131016 60 180 4.0 6.0 0.00 0.00 0.00 26 1011.8
20260503130538 60 180 5.0 10.0 0.00 0.00 0.00 25 1011.9
20260503110517 52 202 3.0 6.0 0.00 0.00 0.00 31 1011.6
20260503081537 46 0.0 1.0 0.00 0.00 0.00 35 1012.0
20260503081017 47 0.0 2.0 0.00 0.00 0.00 35 1012.2
20260503080537 46 0 1.0 2.0 0.00 0.00 0.00 35 1012.3
20260503072517 53 337 2.0 3.0 0.00 0.00 0.00 27 1012.9
20260503072017 53 337 2.0 4.0 0.00 0.00 0.00 26 1013.0
20260503071517 54 225 5.0 7.0 0.00 0.00 0.00 25 1013.0
20260503071017 53 180 2.0 7.0 0.00 0.00 0.00 26 1013.0
20260503070537 52 0.0 2.0 0.00 0.00 0.00 27 1012.9
20260503055035 54 270 3.0 7.0 0.00 0.00 0.00 23 1013.2
20260503054516 55 270 3.0 5.0 0.00 0.00 0.00 22 1013.3
20260503054016 55 270 5.0 7.0 0.00 0.00 0.00 24 1013.4
20260503053556 54 270 5.0 8.0 0.00 0.00 0.00 26 1013.2
20260503053015 53 270 4.0 7.0 0.00 0.00 0.00 26 1013.1
20260503052515 52 270 3.0 5.0 0.00 0.00 0.00 25 1012.9
20260503052036 51 270 3.0 5.0 0.00 0.00 0.00 28 1013.0
20260503051556 48 270 1.0 3.0 0.00 0.00 0.00 32 1012.9
20260503051016 47 0.0 2.0 0.00 0.00 0.00 29 1012.7
20260503050515 46 0.0 0.0 0.00 0.00 0.00 28 1012.8
20260503050018 48 0 2.0 2.0 0.00 0.00 0.00 25 1013.0
20260503045517 48 0 1.0 2.0 0.00 0.00 0.00 25 1012.9
20260503045015 47 0.0 0.0 0.00 0.00 0.00 27 1012.8
20260503044518 46 0.0 0.0 0.00 0.00 0.00 30 1013.0
20260503044017 47 0.0 1.0 0.00 0.00 0.00 26 1013.0
20260503043518 48 0.0 2.0 0.00 0.00 0.00 26 1013.2
20260503043016 49 0 1.0 2.0 0.00 0.00 0.00 23 1013.2
20260503042518 49 67 1.0 2.0 0.00 0.00 0.00 28 1013.2
20260503042018 48 67 2.0 5.0 0.00 0.00 0.00 30 1013.3
20260503041517 48 225 2.0 3.0 0.00 0.00 0.00 30 1013.0
20260503041016 45 0.0 2.0 0.00 0.00 0.00 27 1012.9
20260503040518 45 225 1.0 2.0 0.00 0.00 0.00 36 1012.9
20260503040058 46 225 1.0 2.0 0.00 0.00 0.00 36 1012.9
20260503035518 47 0.0 0.0 0.00 0.00 0.00 27 1012.9
20260503035017 48 0.0 0.0 0.00 0.00 0.00 26 1012.8
20260503034515 49 0.0 0.0 0.00 0.00 0.00 27 1012.7
20260503034017 52 0.0 2.0 0.00 0.00 0.00 26 1013.0
20260503033518 51 0.0 1.0 0.00 0.00 0.00 26 1012.8
20260503033018 51 225 1.0 2.0 0.00 0.00 0.00 24 1012.7
20260503032517 50 225 2.0 3.0 0.00 0.00 0.00 25 1012.6
20260503032017 49 225 2.0 3.0 0.00 0.00 0.00 31 1012.5
20260503031517 48 0.0 0.0 0.00 0.00 0.00 43 1012.5
20260503031017 48 0.0 2.0 0.00 0.00 0.00 43 1012.3
20260503030517 48 0.0 0.0 0.00 0.00 0.00 46 1012.5
20260503030019 49 0.0 0.0 0.00 0.00 0.00 48 1012.3
20260503025517 50 0.0 0.0 0.00 0.00 0.00 40 1012.4
20260503025017 52 0.0 0.0 0.00 0.00 0.00 38 1012.3
20260503024517 52 0.0 0.0 0.00 0.00 0.00 37 1012.4
20260503024017 51 0.0 0.0 0.00 0.00 0.00 39 1012.2
20260503023517 50 0.0 0.0 0.00 0.00 0.00 37 1012.0
20260503023018 49 0.0 0.0 0.00 0.00 0.00 45 1012.2
20260503022517 50 0.0 0.0 0.00 0.00 0.00 40 1012.1
20260503022017 50 0.0 0.0 0.00 0.00 0.00 44 1012.1
20260503021517 52 0.0 0.0 0.00 0.00 0.00 44 1012.2
20260503021017 55 0.0 0.0 0.00 0.00 0.00 22 1012.1